BOX503 VHHH-EDDP

Flight info

Callsign BOX503
Flight time N/A
Altitude 25600
Route BEKOL A461 SHL W22 TEPID W24 OSNOV G586 QP B330 ELKAL W179 LEBIV/K0913S0840 W179 IGNAK/K0893S0810 W179 WFX/K0907S0840 W179 OMBON/K0930S0920 Y1 SADAN W186 KAMUD/K0906F300 L141 TISIB L163 SR N193 OGOLI T898 DARVA/N0489F300 B476 METKA L88 NIJAT/N0484F320 N644 ADEKI DCT BADIR DCT LAGAS DCT NOLGA UG261 TBN UM11 CRM UL746 ODERO L746 LUGEB DCT NARKA DCT MAKAL DCT BEFRE DCT IVQOQ/N0472F300 T951 YAWOY YAWOY1V
Aircraft B77L/H-SDE1E2E3FGHIJ2J3J4J5M1RWXYZ/LB1D1

Departure

Time 2026-05-06 09:52
Airport Hong Kong International Airport (VHHH)

Arrival

Time N/A
Airport Leipzig/Halle Airport (EDDP)
Time Latitude Longitude Altitude Speed Heading
2026-05-06 09:20 22.29898 113.92206 41 ft 0 kts 161°
2026-05-06 09:42 22.29901 113.92205 40 ft 3 kts 161°
2026-05-06 09:42 22.29927 113.92195 37 ft 4 kts 161°
2026-05-06 09:43 22.29952 113.92186 35 ft 4 kts 161°
2026-05-06 09:43 22.29975 113.92179 39 ft 4 kts 185°
2026-05-06 09:43 22.29992 113.92190 39 ft 4 kts 250°
2026-05-06 09:43 22.29999 113.92211 37 ft 0 kts 250°
2026-05-06 09:46 22.29994 113.92196 38 ft 8 kts 250°
2026-05-06 09:46 22.29971 113.92130 40 ft 9 kts 250°
2026-05-06 09:46 22.30004 113.92077 40 ft 10 kts 340°
2026-05-06 09:47 22.30067 113.92053 40 ft 10 kts 342°
2026-05-06 09:47 22.30130 113.92030 41 ft 10 kts 330°
2026-05-06 09:47 22.30133 113.91963 39 ft 10 kts 251°
2026-05-06 09:47 22.30113 113.91892 40 ft 11 kts 252°
2026-05-06 09:48 22.30075 113.91770 41 ft 24 kts 250°
2026-05-06 09:48 22.30021 113.91607 41 ft 23 kts 251°
2026-05-06 09:48 22.29968 113.91438 41 ft 24 kts 251°
2026-05-06 09:48 22.29913 113.91264 41 ft 25 kts 251°
2026-05-06 09:49 22.29855 113.91084 41 ft 24 kts 249°
2026-05-06 09:49 22.29798 113.90914 41 ft 24 kts 252°
2026-05-06 09:49 22.29745 113.90742 40 ft 24 kts 252°
2026-05-06 09:49 22.29691 113.90570 40 ft 25 kts 250°
2026-05-06 09:50 22.29631 113.90387 40 ft 27 kts 250°
2026-05-06 09:50 22.29569 113.90198 40 ft 26 kts 250°
2026-05-06 09:50 22.29520 113.90048 40 ft 20 kts 251°
2026-05-06 09:50 22.29486 113.89922 40 ft 15 kts 267°
2026-05-06 09:51 22.29536 113.89844 41 ft 14 kts 324°
2026-05-06 09:51 22.29628 113.89828 41 ft 15 kts 29°
2026-05-06 09:51 22.29681 113.89961 40 ft 33 kts 75°
2026-05-06 09:51 22.29839 113.90463 39 ft 108 kts 71°
2026-05-06 09:52 22.30157 113.91455 42 ft 174 kts 71°
2026-05-06 09:52 22.30606 113.92857 238 ft 203 kts 72°
2026-05-06 09:52 22.31062 113.94279 1000 ft 200 kts 71°
2026-05-06 09:52 22.31536 113.95742 1435 ft 212 kts 74°
2026-05-06 09:53 22.32017 113.97263 1755 ft 222 kts 73°
2026-05-06 09:53 22.32524 113.98846 2223 ft 224 kts 72°
2026-05-06 09:53 22.33041 114.00453 2655 ft 229 kts 72°
2026-05-06 09:53 22.33572 114.02095 3010 ft 235 kts 73°
2026-05-06 09:54 22.33897 114.03834 3322 ft 239 kts 92°
2026-05-06 09:54 22.33611 114.05600 3727 ft 240 kts 115°
2026-05-06 09:54 22.32732 114.07107 4148 ft 238 kts 137°
2026-05-06 09:54 22.31383 114.08166 4452 ft 243 kts 157°
2026-05-06 09:55 22.29758 114.08670 4876 ft 243 kts 178°
2026-05-06 09:55 22.28086 114.08708 5384 ft 238 kts 184°
2026-05-06 09:55 22.26430 114.08690 5844 ft 240 kts 182°
2026-05-06 09:55 22.24743 114.08685 6241 ft 243 kts 182°
2026-05-06 09:56 22.23021 114.08674 6497 ft 253 kts 183°
2026-05-06 09:56 22.21229 114.08651 6767 ft 262 kts 183°
2026-05-06 09:56 22.19375 114.08631 7027 ft 272 kts 181°
2026-05-06 09:56 22.17465 114.08994 7191 ft 288 kts 157°
2026-05-06 09:57 22.15878 114.10356 7518 ft 302 kts 125°
2026-05-06 09:57 22.15090 114.12466 7920 ft 311 kts 96°
2026-05-06 09:57 22.15147 114.14779 8046 ft 313 kts 83°
2026-05-06 09:57 22.15364 114.17106 8435 ft 317 kts 89°
2026-05-06 09:58 22.15377 114.19486 9048 ft 318 kts 93°
2026-05-06 09:58 22.15270 114.21875 9607 ft 320 kts 95°
2026-05-06 09:58 22.15124 114.24287 10078 ft 325 kts 94°
2026-05-06 09:58 22.15215 114.26755 10219 ft 338 kts 79°
2026-05-06 09:59 22.15776 114.29275 10369 ft 354 kts 75°
2026-05-06 09:59 22.16442 114.31901 10513 ft 371 kts 75°
2026-05-06 09:59 22.17086 114.34657 10639 ft 388 kts 76°
2026-05-06 09:59 22.17844 114.37472 10819 ft 396 kts 64°
2026-05-06 10:00 22.19450 114.39888 11125 ft 400 kts 40°
2026-05-06 10:00 22.21777 114.41491 11709 ft 397 kts 19°
2026-05-06 10:00 22.24436 114.42218 12321 ft 392 kts
2026-05-06 10:00 22.27127 114.42073 12832 ft 387 kts 347°
2026-05-06 10:01 22.29796 114.41524 13202 ft 394 kts 346°
2026-05-06 10:01 22.32498 114.40959 13734 ft 396 kts 347°
2026-05-06 10:01 22.35211 114.40408 14260 ft 397 kts 347°
2026-05-06 10:01 22.37942 114.39870 14707 ft 401 kts 347°
2026-05-06 10:02 22.40704 114.39339 15117 ft 405 kts 348°
2026-05-06 10:02 22.43495 114.38809 15536 ft 409 kts 348°
2026-05-06 10:02 22.46257 114.38123 15860 ft 407 kts 335°
2026-05-06 10:02 22.48650 114.36516 16088 ft 408 kts 314°
2026-05-06 10:03 22.50389 114.34123 16533 ft 406 kts 298°
2026-05-06 10:03 22.51513 114.31336 16979 ft 405 kts 283°
2026-05-06 10:03 22.52023 114.28336 17395 ft 407 kts 277°
2026-05-06 10:03 22.52425 114.25332 17757 ft 411 kts 277°
2026-05-06 10:04 22.52873 114.22264 18147 ft 415 kts 278°
2026-05-06 10:04 22.53356 114.19179 18515 ft 417 kts 278°
2026-05-06 10:04 22.54075 114.16153 18786 ft 419 kts 293°
2026-05-06 10:04 22.55680 114.13498 19040 ft 427 kts 311°
2026-05-06 10:05 22.57929 114.11383 19424 ft 432 kts 325°
2026-05-06 10:05 22.60594 114.09873 19777 ft 434 kts 333°
2026-05-06 10:05 22.63362 114.08502 19877 ft 440 kts 333°
2026-05-06 10:05 22.66155 114.07137 19927 ft 440 kts 333°
2026-05-06 10:06 22.68931 114.05767 19945 ft 437 kts 333°
2026-05-06 10:06 22.71688 114.04386 19944 ft 436 kts 332°
2026-05-06 10:06 22.74437 114.02990 19942 ft 435 kts 332°
2026-05-06 10:06 22.77168 114.01592 19952 ft 434 kts 332°
2026-05-06 10:07 22.79897 114.00190 19955 ft 434 kts 332°
2026-05-06 10:07 22.82624 113.98787 19954 ft 434 kts 332°
2026-05-06 10:07 22.85355 113.97383 19947 ft 434 kts 332°
2026-05-06 10:07 22.88087 113.95979 19946 ft 435 kts 332°
2026-05-06 10:08 22.90821 113.94573 19950 ft 435 kts 332°
2026-05-06 10:08 22.93553 113.93155 19951 ft 435 kts 332°
2026-05-06 10:08 22.96249 113.91749 19954 ft 436 kts 332°
2026-05-06 10:08 22.98984 113.90323 19953 ft 436 kts 332°
2026-05-06 10:09 23.01722 113.88897 19953 ft 437 kts 332°
2026-05-06 10:09 23.04462 113.87470 19947 ft 437 kts 332°
2026-05-06 10:09 23.07170 113.85979 19942 ft 436 kts 327°
2026-05-06 10:09 23.09697 113.84182 19939 ft 433 kts 321°
2026-05-06 10:10 23.12038 113.82133 19954 ft 431 kts 315°
2026-05-06 10:10 23.14191 113.79883 19963 ft 430 kts 313°
2026-05-06 10:10 23.16333 113.77611 19954 ft 430 kts 313°
2026-05-06 10:10 23.18477 113.75340 19959 ft 431 kts 313°
2026-05-06 10:11 23.20625 113.73072 19956 ft 431 kts 313°
2026-05-06 10:11 23.22778 113.70807 19955 ft 431 kts 313°
2026-05-06 10:11 23.24936 113.68540 19956 ft 430 kts 313°
2026-05-06 10:11 23.27090 113.66279 19953 ft 430 kts 313°
2026-05-06 10:12 23.29239 113.64025 19949 ft 430 kts 313°
2026-05-06 10:12 23.31392 113.61767 19947 ft 430 kts 313°
2026-05-06 10:12 23.33548 113.59504 19948 ft 430 kts 313°
2026-05-06 10:12 23.35697 113.57247 19947 ft 429 kts 313°
2026-05-06 10:13 23.37846 113.54989 19951 ft 429 kts 313°
2026-05-06 10:13 23.39992 113.52731 19948 ft 429 kts 313°
2026-05-06 10:13 23.42137 113.50474 19951 ft 429 kts 313°
2026-05-06 10:13 23.44282 113.48218 19947 ft 429 kts 313°
2026-05-06 10:14 23.46426 113.45960 19948 ft 429 kts 313°
2026-05-06 10:14 23.48569 113.43701 19945 ft 429 kts 313°
2026-05-06 10:14 23.50713 113.41441 19951 ft 429 kts 313°
2026-05-06 10:14 23.52857 113.39182 19952 ft 429 kts 313°
2026-05-06 10:15 23.54994 113.36915 19955 ft 429 kts 313°
2026-05-06 10:15 23.57115 113.34634 19943 ft 428 kts 312°
2026-05-06 10:15 23.59231 113.32351 19955 ft 428 kts 312°
2026-05-06 10:15 23.61358 113.30059 20204 ft 431 kts 313°
2026-05-06 10:16 23.63494 113.27758 20610 ft 432 kts 312°
2026-05-06 10:16 23.65494 113.25323 20997 ft 431 kts 305°
2026-05-06 10:16 23.67205 113.22651 21347 ft 431 kts 299°
2026-05-06 10:16 23.68683 113.19805 21676 ft 432 kts 293°
2026-05-06 10:17 23.69916 113.16815 21994 ft 433 kts 291°
2026-05-06 10:17 23.71114 113.13830 22335 ft 435 kts 291°
2026-05-06 10:17 23.72339 113.10799 22674 ft 438 kts 291°
2026-05-06 10:17 23.73582 113.07759 23014 ft 440 kts 292°
2026-05-06 10:18 23.74840 113.04705 23328 ft 442 kts 292°
2026-05-06 10:18 23.76158 113.01673 23587 ft 443 kts 298°
2026-05-06 10:18 23.78101 112.99020 23704 ft 455 kts 316°
2026-05-06 10:18 23.79808 112.97595 23874 ft 460 kts 325°
2026-05-06 10:19 23.82670 112.96109 24165 ft 466 kts 339°
2026-05-06 10:19 23.85797 112.95173 24497 ft 468 kts 342°
2026-05-06 10:19 23.88940 112.94240 24763 ft 469 kts 341°
2026-05-06 10:19 23.92077 112.93229 24995 ft 471 kts 340°
2026-05-06 10:20 23.95213 112.92183 25258 ft 472 kts 340°
2026-05-06 10:20 23.98359 112.91132 25527 ft 473 kts 340°
2026-05-06 10:20 24.01513 112.90081 25814 ft 474 kts 340°
2026-05-06 10:20 24.04676 112.89029 26091 ft 476 kts 340°
2026-05-06 10:21 24.07846 112.87977 26358 ft 477 kts 340°
2026-05-06 10:21 24.11026 112.86921 26614 ft 478 kts 340°
2026-05-06 10:21 24.14214 112.85862 26868 ft 479 kts 340°
2026-05-06 10:21 24.17411 112.84800 27138 ft 481 kts 340°
2026-05-06 10:22 24.20614 112.83737 27420 ft 481 kts 340°
2026-05-06 10:22 24.23823 112.82673 27674 ft 482 kts 340°
2026-05-06 10:22 24.27038 112.81607 27852 ft 486 kts 340°
2026-05-06 10:22 24.30289 112.80527 27890 ft 488 kts 340°
2026-05-06 10:23 24.33538 112.79447 27947 ft 489 kts 340°
2026-05-06 10:23 24.36812 112.78358 27941 ft 494 kts 340°
2026-05-06 10:23 24.40110 112.77261 27951 ft 497 kts 340°
2026-05-06 10:23 24.43326 112.75932 27923 ft 492 kts 328°
2026-05-06 10:24 24.46049 112.73708 27946 ft 488 kts 311°
2026-05-06 10:24 24.48079 112.70743 27950 ft 486 kts 298°
2026-05-06 10:24 24.49519 112.67386 27930 ft 487 kts 288°
2026-05-06 10:24 24.50269 112.63775 27937 ft 485 kts 276°
2026-05-06 10:25 24.50609 112.60089 27935 ft 486 kts 275°
2026-05-06 10:25 24.50904 112.56389 27939 ft 486 kts 275°
2026-05-06 10:25 24.51198 112.52694 27929 ft 487 kts 275°
2026-05-06 10:25 24.51507 112.48990 27921 ft 487 kts 275°
2026-05-06 10:26 24.51835 112.45294 27927 ft 486 kts 275°
2026-05-06 10:26 24.52177 112.41607 27924 ft 485 kts 276°
2026-05-06 10:26 24.52527 112.37925 27922 ft 484 kts 276°
2026-05-06 10:26 24.52880 112.34253 27925 ft 483 kts 276°
2026-05-06 10:27 24.53229 112.30635 27918 ft 482 kts 276°
2026-05-06 10:27 24.53581 112.26974 27922 ft 482 kts 276°
2026-05-06 10:27 24.53930 112.23319 27925 ft 481 kts 276°
2026-05-06 10:27 24.54277 112.19668 27935 ft 481 kts 276°
2026-05-06 10:28 24.54625 112.16016 27923 ft 481 kts 276°
2026-05-06 10:28 24.54971 112.12364 27938 ft 481 kts 276°
2026-05-06 10:28 24.55315 112.08708 27930 ft 482 kts 276°
2026-05-06 10:28 24.55659 112.05047 27926 ft 482 kts 276°
2026-05-06 10:29 24.56001 112.01383 27924 ft 482 kts 276°
2026-05-06 10:29 24.56343 111.97716 27924 ft 483 kts 276°
2026-05-06 10:29 24.56685 111.94048 27922 ft 483 kts 276°
2026-05-06 10:29 24.57026 111.90379 27925 ft 483 kts 276°
2026-05-06 10:30 24.57367 111.86710 27924 ft 483 kts 276°
2026-05-06 10:30 24.57706 111.83039 27922 ft 483 kts 276°
2026-05-06 10:30 24.58045 111.79367 27921 ft 483 kts 276°
2026-05-06 10:30 24.58382 111.75699 27914 ft 482 kts 276°
2026-05-06 10:31 24.58718 111.72039 27908 ft 481 kts 276°
2026-05-06 10:31 24.59052 111.68389 27916 ft 480 kts 276°
2026-05-06 10:31 24.59385 111.64743 27919 ft 479 kts 275°
2026-05-06 10:31 24.59716 111.61099 27910 ft 479 kts 276°
2026-05-06 10:32 24.60046 111.57458 27912 ft 478 kts 275°
2026-05-06 10:32 24.60375 111.53821 27924 ft 478 kts 275°
2026-05-06 10:32 24.60702 111.50182 27902 ft 478 kts 276°
2026-05-06 10:32 24.61030 111.46547 27904 ft 478 kts 276°
2026-05-06 10:33 24.61358 111.42911 27905 ft 478 kts 275°
2026-05-06 10:33 24.61683 111.39275 27900 ft 478 kts 275°
2026-05-06 10:33 24.62008 111.35638 27899 ft 478 kts 275°
2026-05-06 10:33 24.62332 111.32002 27899 ft 478 kts 275°
2026-05-06 10:34 24.62654 111.28366 27899 ft 478 kts 275°
2026-05-06 10:34 24.62973 111.24729 27901 ft 478 kts 275°
2026-05-06 10:34 24.63289 111.21091 27894 ft 478 kts 275°
2026-05-06 10:34 24.63604 111.17459 27893 ft 478 kts 275°
2026-05-06 10:35 24.63920 111.13811 27897 ft 478 kts 275°
2026-05-06 10:35 24.64234 111.10170 27888 ft 479 kts 275°
2026-05-06 10:35 24.64546 111.06536 27894 ft 478 kts 275°
2026-05-06 10:35 24.64859 111.02896 27890 ft 478 kts 275°
2026-05-06 10:36 24.65171 110.99257 27892 ft 478 kts 275°
2026-05-06 10:36 24.65483 110.95618 27884 ft 478 kts 275°
2026-05-06 10:36 24.65793 110.91981 27896 ft 478 kts 275°
2026-05-06 10:36 24.66102 110.88342 27890 ft 478 kts 275°
2026-05-06 10:37 24.66405 110.84752 27882 ft 478 kts 275°
2026-05-06 10:37 24.66957 110.81168 27876 ft 476 kts 286°
2026-05-06 10:37 24.68208 110.77796 27897 ft 478 kts 296°
2026-05-06 10:37 24.69965 110.74684 27884 ft 481 kts 305°
2026-05-06 10:38 24.72206 110.71951 27869 ft 482 kts 314°
2026-05-06 10:38 24.74673 110.69445 27876 ft 483 kts 315°
2026-05-06 10:38 24.77138 110.66935 27874 ft 484 kts 314°
2026-05-06 10:38 24.79605 110.64396 27883 ft 485 kts 314°
2026-05-06 10:39 24.82049 110.61849 27888 ft 485 kts 314°
2026-05-06 10:39 24.84491 110.59281 27870 ft 486 kts 313°
2026-05-06 10:39 24.86930 110.56704 27864 ft 486 kts 313°
2026-05-06 10:39 24.89368 110.54124 27862 ft 486 kts 313°
2026-05-06 10:40 24.91805 110.51544 27860 ft 486 kts 313°
2026-05-06 10:40 24.94239 110.48968 27870 ft 485 kts 313°
2026-05-06 10:40 24.96671 110.46394 27868 ft 485 kts 313°
2026-05-06 10:40 24.99102 110.43819 27871 ft 485 kts 313°
2026-05-06 10:41 25.01541 110.41236 27862 ft 485 kts 313°
2026-05-06 10:41 25.03973 110.38667 27865 ft 485 kts 314°
2026-05-06 10:41 25.06412 110.36095 27863 ft 485 kts 314°
2026-05-06 10:41 25.08856 110.33517 27856 ft 485 kts 313°
2026-05-06 10:42 25.11293 110.30944 27859 ft 485 kts 313°
2026-05-06 10:42 25.13730 110.28369 27869 ft 485 kts 313°
2026-05-06 10:42 25.16159 110.25799 27862 ft 485 kts 313°
2026-05-06 10:42 25.18594 110.23222 27860 ft 485 kts 313°
2026-05-06 10:43 25.21029 110.20643 27855 ft 485 kts 313°
2026-05-06 10:43 25.23472 110.18075 27852 ft 485 kts 314°
2026-05-06 10:43 25.25928 110.15508 27853 ft 485 kts 314°
2026-05-06 10:44 25.30822 110.10397 27855 ft 484 kts 313°
2026-05-06 10:44 25.33236 110.07872 27860 ft 484 kts 313°
2026-05-06 10:44 25.35682 110.05309 27864 ft 484 kts 313°
2026-05-06 10:44 25.38126 110.02745 27861 ft 484 kts 313°
2026-05-06 10:45 25.40570 110.00180 27856 ft 484 kts 313°
2026-05-06 10:45 25.43012 109.97613 27854 ft 484 kts 313°
2026-05-06 10:45 25.45454 109.95045 27868 ft 484 kts 313°
2026-05-06 10:45 25.47902 109.92470 27877 ft 485 kts 313°
2026-05-06 10:46 25.50345 109.89899 27869 ft 485 kts 313°
2026-05-06 10:46 25.52785 109.87328 27867 ft 483 kts 313°
2026-05-06 10:46 25.55221 109.84763 27850 ft 483 kts 313°
2026-05-06 10:46 25.57654 109.82200 27873 ft 482 kts 313°
2026-05-06 10:47 25.60084 109.79635 27861 ft 483 kts 313°
2026-05-06 10:47 25.62514 109.77068 27853 ft 483 kts 313°
2026-05-06 10:47 25.64945 109.74501 27858 ft 483 kts 313°
2026-05-06 10:47 25.67374 109.71932 27863 ft 483 kts 313°
2026-05-06 10:48 25.69804 109.69363 27855 ft 483 kts 313°
2026-05-06 10:48 25.72228 109.66799 27859 ft 483 kts 313°
2026-05-06 10:48 25.74609 109.64171 27839 ft 480 kts 308°
2026-05-06 10:48 25.76600 109.61224 27852 ft 476 kts 299°
2026-05-06 10:49 25.78194 109.58075 27848 ft 474 kts 294°
2026-05-06 10:49 25.79471 109.54717 27840 ft 471 kts 286°
2026-05-06 10:49 25.80387 109.51230 27855 ft 471 kts 284°
2026-05-06 10:49 25.81269 109.47728 27842 ft 472 kts 284°
2026-05-06 10:50 25.82158 109.44222 27852 ft 472 kts 284°
2026-05-06 10:50 25.83059 109.40714 27836 ft 473 kts 284°
2026-05-06 10:50 25.83972 109.37208 27853 ft 473 kts 284°
2026-05-06 10:50 25.84889 109.33705 27863 ft 473 kts 284°
2026-05-06 10:51 25.85809 109.30201 27851 ft 473 kts 284°
2026-05-06 10:51 25.86730 109.26693 27845 ft 473 kts 284°
2026-05-06 10:51 25.87652 109.23177 27848 ft 473 kts 284°
2026-05-06 10:51 25.88570 109.19671 27848 ft 473 kts 284°
2026-05-06 10:52 25.89486 109.16165 27856 ft 473 kts 284°
2026-05-06 10:52 25.90399 109.12667 27854 ft 473 kts 284°
2026-05-06 10:52 25.91313 109.09162 27849 ft 472 kts 284°
2026-05-06 10:52 25.92226 109.05659 27843 ft 472 kts 284°
2026-05-06 10:53 25.93140 109.02162 27852 ft 471 kts 284°
2026-05-06 10:53 25.94061 108.98670 27847 ft 471 kts 284°
2026-05-06 10:53 25.94972 108.95228 27861 ft 470 kts 284°
2026-05-06 10:53 25.95895 108.91740 27862 ft 471 kts 284°
2026-05-06 10:54 25.96816 108.88251 27864 ft 471 kts 284°
2026-05-06 10:54 25.97735 108.84761 27855 ft 470 kts 284°
2026-05-06 10:54 25.98652 108.81273 27860 ft 470 kts 284°
2026-05-06 10:54 25.99568 108.77783 27865 ft 470 kts 284°
2026-05-06 10:55 26.00484 108.74291 27864 ft 471 kts 284°
2026-05-06 10:55 26.01401 108.70805 27855 ft 471 kts 284°
2026-05-06 10:55 26.02335 108.67306 27859 ft 471 kts 284°
2026-05-06 10:55 26.03271 108.63818 27863 ft 471 kts 284°
2026-05-06 10:56 26.04207 108.60330 27857 ft 471 kts 284°
2026-05-06 10:56 26.05139 108.56849 27867 ft 471 kts 284°
2026-05-06 10:56 26.06070 108.53358 27862 ft 471 kts 284°
2026-05-06 10:56 26.07000 108.49867 27858 ft 471 kts 284°
2026-05-06 10:57 26.07928 108.46375 27860 ft 471 kts 284°
2026-05-06 10:57 26.08856 108.42884 27885 ft 471 kts 284°
2026-05-06 10:57 26.09877 108.39420 27866 ft 472 kts 288°
2026-05-06 10:57 26.11186 108.36065 27866 ft 474 kts 294°
2026-05-06 10:58 26.12647 108.32781 27871 ft 473 kts 294°
2026-05-06 10:58 26.14098 108.29492 27875 ft 474 kts 293°
2026-05-06 10:58 26.15540 108.26194 27864 ft 474 kts 293°
2026-05-06 10:58 26.16973 108.22892 27870 ft 474 kts 293°
2026-05-06 10:59 26.18401 108.19589 27860 ft 473 kts 293°
2026-05-06 10:59 26.19824 108.16288 27860 ft 473 kts 293°
2026-05-06 10:59 26.21244 108.12990 27865 ft 472 kts 293°
2026-05-06 10:59 26.22662 108.09692 27868 ft 472 kts 293°
2026-05-06 11:00 26.24061 108.06439 27868 ft 472 kts 293°
2026-05-06 11:00 26.25478 108.03142 27860 ft 472 kts 293°
2026-05-06 11:00 26.26893 107.99847 27868 ft 471 kts 293°
2026-05-06 11:00 26.28307 107.96550 27857 ft 471 kts 293°
2026-05-06 11:01 26.29721 107.93255 27867 ft 471 kts 293°
2026-05-06 11:01 26.31133 107.89955 27866 ft 472 kts 293°
2026-05-06 11:01 26.32547 107.86652 27865 ft 472 kts 293°
2026-05-06 11:01 26.33962 107.83345 27867 ft 473 kts 293°
2026-05-06 11:02 26.35378 107.80033 27858 ft 474 kts 293°
2026-05-06 11:02 26.36795 107.76716 27854 ft 474 kts 293°
2026-05-06 11:02 26.38211 107.73398 27856 ft 474 kts 293°
2026-05-06 11:02 26.39626 107.70080 27846 ft 473 kts 293°
2026-05-06 11:03 26.41040 107.66765 27846 ft 473 kts 293°
2026-05-06 11:03 26.42450 107.63451 27851 ft 473 kts 293°
2026-05-06 11:03 26.43856 107.60146 27864 ft 472 kts 293°
2026-05-06 11:03 26.45263 107.56835 27851 ft 472 kts 293°
2026-05-06 11:04 26.46669 107.53526 27852 ft 471 kts 293°
2026-05-06 11:04 26.48074 107.50222 27855 ft 471 kts 293°
2026-05-06 11:04 26.49486 107.46926 27861 ft 471 kts 293°
2026-05-06 11:04 26.50904 107.43626 27854 ft 470 kts 293°
2026-05-06 11:05 26.52315 107.40343 27853 ft 469 kts 293°
2026-05-06 11:05 26.53724 107.37056 27857 ft 469 kts 293°
2026-05-06 11:05 26.55131 107.33761 27857 ft 469 kts 293°
2026-05-06 11:05 26.56519 107.30473 27862 ft 469 kts 292°
2026-05-06 11:06 26.57904 107.27171 27864 ft 470 kts 292°
2026-05-06 11:06 26.59292 107.23858 27859 ft 470 kts 292°
2026-05-06 11:06 26.60676 107.20557 27847 ft 470 kts 293°
2026-05-06 11:06 26.62065 107.17252 27870 ft 470 kts 292°
2026-05-06 11:07 26.63452 107.13942 27861 ft 471 kts 292°
2026-05-06 11:07 26.64850 107.10634 27859 ft 471 kts 293°
2026-05-06 11:07 26.66258 107.07329 27862 ft 471 kts 293°
2026-05-06 11:07 26.67669 107.04024 27870 ft 471 kts 293°
2026-05-06 11:08 26.68603 107.01831 27860 ft 471 kts 293°
2026-05-06 11:08 26.70012 106.98523 27862 ft 471 kts 293°
2026-05-06 11:08 26.71414 106.95219 27860 ft 471 kts 293°
2026-05-06 11:08 26.72819 106.91905 27857 ft 471 kts 293°
2026-05-06 11:09 26.74222 106.88592 27861 ft 471 kts 293°
2026-05-06 11:09 26.75625 106.85279 27879 ft 471 kts 293°
2026-05-06 11:09 26.77108 106.81998 27849 ft 473 kts 298°
2026-05-06 11:09 26.78928 106.78939 27874 ft 474 kts 304°
2026-05-06 11:10 26.80998 106.76056 27877 ft 476 kts 308°
2026-05-06 11:10 26.83292 106.73369 27876 ft 479 kts 314°
2026-05-06 11:10 26.85797 106.70905 27882 ft 480 kts 316°
2026-05-06 11:10 26.88330 106.68469 27879 ft 480 kts 315°
2026-05-06 11:11 26.90861 106.66035 27887 ft 479 kts 315°
2026-05-06 11:11 26.93384 106.63594 27872 ft 479 kts 315°
2026-05-06 11:11 26.95897 106.61145 27878 ft 478 kts 315°
2026-05-06 11:11 26.98375 106.58717 27886 ft 478 kts 315°
2026-05-06 11:12 27.00876 106.56259 27875 ft 478 kts 315°
2026-05-06 11:12 27.03375 106.53799 27872 ft 478 kts 315°
2026-05-06 11:12 27.05900 106.51311 27879 ft 478 kts 315°
2026-05-06 11:12 27.08404 106.48844 27859 ft 478 kts 315°
2026-05-06 11:13 27.10867 106.46416 27872 ft 478 kts 315°
2026-05-06 11:13 27.13363 106.43955 27865 ft 478 kts 315°
2026-05-06 11:13 27.15858 106.41494 27873 ft 477 kts 315°
2026-05-06 11:13 27.18351 106.39033 27870 ft 477 kts 315°
2026-05-06 11:14 27.20839 106.36578 27865 ft 477 kts 315°
2026-05-06 11:14 27.23346 106.34129 27877 ft 478 kts 315°
2026-05-06 11:14 27.25862 106.31688 27877 ft 478 kts 315°
2026-05-06 11:14 27.28389 106.29239 27875 ft 479 kts 315°
2026-05-06 11:15 27.30912 106.26792 27874 ft 479 kts 315°
2026-05-06 11:15 27.33435 106.24340 27867 ft 479 kts 315°
2026-05-06 11:15 27.35957 106.21885 27863 ft 479 kts 315°
2026-05-06 11:15 27.38478 106.19427 27875 ft 480 kts 315°
2026-05-06 11:16 27.40994 106.16972 27869 ft 480 kts 315°
2026-05-06 11:16 27.43516 106.14508 27871 ft 480 kts 315°
2026-05-06 11:16 27.46039 106.12043 27867 ft 480 kts 315°
2026-05-06 11:16 27.48561 106.09577 27865 ft 480 kts 315°
2026-05-06 11:17 27.51081 106.07111 27851 ft 480 kts 315°
2026-05-06 11:17 27.53602 106.04644 27861 ft 480 kts 315°
2026-05-06 11:17 27.56120 106.02178 27864 ft 479 kts 315°
2026-05-06 11:17 27.58636 105.99711 27866 ft 479 kts 315°
2026-05-06 11:18 27.61151 105.97244 27863 ft 479 kts 315°
2026-05-06 11:18 27.63663 105.94777 27853 ft 479 kts 315°
2026-05-06 11:18 27.66141 105.92345 27859 ft 478 kts 315°
2026-05-06 11:18 27.68563 105.89964 27860 ft 477 kts 314°
2026-05-06 11:19 27.70872 105.87307 27853 ft 472 kts 305°
2026-05-06 11:19 27.72747 105.84289 27863 ft 468 kts 298°
2026-05-06 11:19 27.74294 105.81064 27857 ft 466 kts 292°
2026-05-06 11:19 27.75441 105.77654 27861 ft 464 kts 285°
2026-05-06 11:20 27.76363 105.74169 27871 ft 463 kts 285°
2026-05-06 11:20 27.77297 105.70685 27875 ft 464 kts 285°
2026-05-06 11:20 27.78260 105.67205 27858 ft 464 kts 285°
2026-05-06 11:20 27.79239 105.63732 27882 ft 464 kts 286°
2026-05-06 11:21 27.80293 105.60290 27879 ft 464 kts 290°
2026-05-06 11:21 27.81580 105.56946 27868 ft 464 kts 292°
2026-05-06 11:21 27.82898 105.53618 27868 ft 464 kts 291°
2026-05-06 11:21 27.84203 105.50288 27865 ft 463 kts 291°
2026-05-06 11:22 27.85495 105.46958 27874 ft 462 kts 291°
2026-05-06 11:22 27.86780 105.43630 27869 ft 462 kts 291°
2026-05-06 11:22 27.88061 105.40307 27874 ft 461 kts 291°
2026-05-06 11:22 27.89404 105.37016 27873 ft 461 kts 294°
2026-05-06 11:23 27.90845 105.33783 27885 ft 462 kts 294°
2026-05-06 11:23 27.92307 105.30551 27872 ft 462 kts 294°
2026-05-06 11:23 27.93764 105.27315 27872 ft 462 kts 294°
2026-05-06 11:23 27.95209 105.24072 27879 ft 462 kts 294°
2026-05-06 11:24 27.96750 105.20938 27858 ft 464 kts 301°
2026-05-06 11:24 27.98763 105.18067 27880 ft 468 kts 309°
2026-05-06 11:24 28.01084 105.15465 27861 ft 471 kts 314°
2026-05-06 11:24 28.03681 105.13175 27862 ft 477 kts 322°
2026-05-06 11:25 28.06514 105.11214 27885 ft 477 kts 324°
2026-05-06 11:25 28.09368 105.09283 27871 ft 478 kts 324°
2026-05-06 11:25 28.12221 105.07344 27895 ft 478 kts 324°
2026-05-06 11:25 28.15062 105.05394 27878 ft 477 kts 324°
2026-05-06 11:26 28.17897 105.03427 27874 ft 478 kts 324°
2026-05-06 11:26 28.20728 105.01448 27869 ft 478 kts 323°
2026-05-06 11:26 28.23559 104.99465 27866 ft 478 kts 323°
2026-05-06 11:26 28.26389 104.97481 27865 ft 478 kts 323°
2026-05-06 11:27 28.29220 104.95495 27849 ft 478 kts 323°
2026-05-06 11:27 28.32050 104.93511 27843 ft 478 kts 324°
2026-05-06 11:27 28.34875 104.91530 27881 ft 477 kts 324°
2026-05-06 11:27 28.37695 104.89548 27854 ft 477 kts 324°
2026-05-06 11:28 28.40519 104.87565 27879 ft 478 kts 324°
2026-05-06 11:28 28.43360 104.85575 28018 ft 481 kts 324°
2026-05-06 11:28 28.46200 104.83589 28296 ft 480 kts 324°
2026-05-06 11:28 28.49039 104.81604 28650 ft 478 kts 324°
2026-05-06 11:29 28.51832 104.79650 29033 ft 475 kts 324°
2026-05-06 11:29 28.54640 104.77682 29429 ft 473 kts 323°
2026-05-06 11:29 28.57435 104.75722 29788 ft 471 kts 323°
2026-05-06 11:30 28.63028 104.71790 29857 ft 473 kts 323°
2026-05-06 11:30 28.68610 104.67863 29854 ft 470 kts 323°
2026-05-06 11:31 28.74165 104.63950 29878 ft 469 kts 323°
2026-05-06 11:31 28.79703 104.60043 29858 ft 467 kts 323°
2026-05-06 11:32 28.85219 104.56148 29860 ft 466 kts 323°
2026-05-06 11:32 28.90727 104.52241 29862 ft 466 kts 323°
2026-05-06 11:33 28.96232 104.48323 29877 ft 467 kts 323°
2026-05-06 11:33 29.01746 104.44394 29877 ft 468 kts 323°
2026-05-06 11:34 29.07275 104.40451 29884 ft 469 kts 323°
2026-05-06 11:34 29.12816 104.36495 29874 ft 470 kts 323°
2026-05-06 11:35 29.18364 104.32529 29880 ft 470 kts 323°
2026-05-06 11:35 29.23976 104.28680 29879 ft 473 kts 331°
2026-05-06 11:35 29.27087 104.27504 29890 ft 482 kts 342°
2026-05-06 11:36 29.30434 104.26957 29879 ft 490 kts 351°
2026-05-06 11:36 29.33869 104.27094 29874 ft 498 kts
2026-05-06 11:36 29.37297 104.27701 29900 ft 501 kts
2026-05-06 11:37 29.44246 104.29013 29884 ft 503 kts
2026-05-06 11:37 29.51115 104.30252 29888 ft 504 kts
2026-05-06 11:38 29.58058 104.31443 29879 ft 505 kts
2026-05-06 11:38 29.65015 104.32622 29876 ft 506 kts
2026-05-06 11:39 29.71992 104.33809 29883 ft 508 kts
2026-05-06 11:39 29.78988 104.35004 29877 ft 508 kts
2026-05-06 11:40 29.85982 104.36202 29872 ft 509 kts
2026-05-06 11:40 29.92985 104.37403 29883 ft 509 kts
2026-05-06 11:41 29.99989 104.38606 29867 ft 508 kts
2026-05-06 11:41 30.06984 104.39809 29878 ft 508 kts
2026-05-06 11:42 30.13971 104.41012 29876 ft 507 kts
2026-05-06 11:42 30.20953 104.42225 29889 ft 507 kts
2026-05-06 11:43 30.27924 104.43447 29877 ft 506 kts
2026-05-06 11:43 30.34886 104.44666 29881 ft 506 kts
2026-05-06 11:44 30.45319 104.46496 29881 ft 505 kts
2026-05-06 11:44 30.52230 104.47709 29882 ft 506 kts
2026-05-06 11:45 30.59188 104.48489 29877 ft 497 kts 352°
2026-05-06 11:45 30.65943 104.47320 29886 ft 486 kts 338°
2026-05-06 11:46 30.72314 104.44788 29898 ft 484 kts 336°
2026-05-06 11:46 30.78716 104.42264 29897 ft 487 kts 338°
2026-05-06 11:47 30.85207 104.39918 29885 ft 492 kts 343°
2026-05-06 11:47 30.92018 104.38760 29888 ft 499 kts 353°
2026-05-06 11:48 30.98983 104.38617 29908 ft 501 kts 355°
2026-05-06 11:48 31.05960 104.38498 29892 ft 501 kts 356°
2026-05-06 11:49 31.12929 104.38326 29887 ft 500 kts 356°
2026-05-06 11:49 31.19880 104.38136 29888 ft 499 kts 356°
2026-05-06 11:50 31.26816 104.37938 29896 ft 498 kts 355°
2026-05-06 11:50 31.33729 104.37553 29893 ft 497 kts 354°
2026-05-06 11:51 31.40632 104.37112 29900 ft 497 kts 354°
2026-05-06 11:51 31.47530 104.36697 29898 ft 497 kts 355°
2026-05-06 11:52 31.54447 104.36296 29914 ft 497 kts 355°
2026-05-06 11:52 31.61324 104.35899 29945 ft 499 kts 355°
2026-05-06 11:53 31.68263 104.35497 29953 ft 500 kts 355°
2026-05-06 11:53 31.75220 104.35092 29956 ft 501 kts 355°
2026-05-06 11:54 31.82182 104.34711 29959 ft 502 kts 355°
2026-05-06 11:54 31.89177 104.34362 29971 ft 503 kts 354°
2026-05-06 11:55 31.96186 104.34008 29988 ft 505 kts 354°
2026-05-06 11:55 32.03216 104.33646 29984 ft 507 kts 354°
2026-05-06 11:56 32.10263 104.33290 30003 ft 506 kts 353°
2026-05-06 11:56 32.17308 104.32923 29994 ft 507 kts 353°
2026-05-06 11:57 32.24359 104.32557 30009 ft 507 kts 353°
2026-05-06 11:57 32.31410 104.32196 30007 ft 507 kts 353°
2026-05-06 11:58 32.37263 104.31895 30027 ft 505 kts 353°
2026-05-06 11:58 32.44266 104.31534 30033 ft 502 kts 353°
2026-05-06 11:59 32.51227 104.31185 30027 ft 500 kts 353°
2026-05-06 11:59 32.59289 104.30781 30058 ft 498 kts 353°
2026-05-06 12:00 32.65049 104.30500 30071 ft 499 kts 353°
2026-05-06 12:00 32.71994 104.30172 30068 ft 500 kts 353°
2026-05-06 12:01 32.78960 104.29839 30101 ft 502 kts 353°
2026-05-06 12:01 32.85941 104.29504 30091 ft 502 kts 353°
2026-05-06 12:02 32.92931 104.29167 30103 ft 503 kts 353°
2026-05-06 12:02 32.99938 104.28827 30114 ft 505 kts 353°
2026-05-06 12:03 33.06966 104.28490 30105 ft 506 kts 354°
2026-05-06 12:03 33.14003 104.28151 30102 ft 506 kts 354°
2026-05-06 12:04 33.21042 104.27810 30115 ft 507 kts 354°
2026-05-06 12:04 33.28091 104.27469 30112 ft 506 kts 353°
2026-05-06 12:05 33.31535 104.26907 30102 ft 495 kts 338°
2026-05-06 12:05 33.34619 104.25223 30123 ft 484 kts 322°
2026-05-06 12:05 33.37192 104.22687 30131 ft 477 kts 310°
2026-05-06 12:05 33.39250 104.19606 30147 ft 472 kts 298°
2026-05-06 12:06 33.42315 104.12716 30151 ft 469 kts 295°
2026-05-06 12:06 33.45296 104.05819 30165 ft 470 kts 295°
2026-05-06 12:07 33.48342 103.98888 30171 ft 469 kts 295°
2026-05-06 12:07 33.51410 103.91987 30171 ft 469 kts 296°
2026-05-06 12:08 33.54476 103.85099 30182 ft 469 kts 295°
2026-05-06 12:08 33.57537 103.78212 30168 ft 468 kts 295°
2026-05-06 12:09 33.60588 103.71328 30172 ft 468 kts 295°
2026-05-06 12:09 33.63638 103.64430 30175 ft 467 kts 295°
2026-05-06 12:10 33.66678 103.57544 30159 ft 467 kts 295°
2026-05-06 12:10 33.69706 103.50669 30180 ft 466 kts 295°
2026-05-06 12:11 33.72732 103.43783 30181 ft 467 kts 295°
2026-05-06 12:11 33.75760 103.36882 30191 ft 467 kts 294°
2026-05-06 12:12 33.78790 103.29966 30172 ft 468 kts 294°
2026-05-06 12:12 33.81815 103.23039 30171 ft 468 kts 294°
2026-05-06 12:13 33.84838 103.16111 30162 ft 468 kts 294°
2026-05-06 12:13 33.87858 103.09175 30162 ft 468 kts 294°
2026-05-06 12:14 33.90867 103.02246 30153 ft 468 kts 294°
2026-05-06 12:14 33.93858 102.95349 30162 ft 468 kts 294°
2026-05-06 12:15 33.96869 102.88387 30165 ft 468 kts 294°
2026-05-06 12:15 33.99877 102.81422 30160 ft 468 kts 294°
2026-05-06 12:16 34.02879 102.74458 30158 ft 469 kts 293°
2026-05-06 12:16 34.05881 102.67477 30157 ft 469 kts 293°
2026-05-06 12:17 34.08884 102.60480 30187 ft 470 kts 293°
2026-05-06 12:17 34.11885 102.53471 30177 ft 470 kts 293°
2026-05-06 12:18 34.14886 102.46451 30175 ft 471 kts 293°
2026-05-06 12:18 34.17888 102.39415 30175 ft 472 kts 293°
2026-05-06 12:19 34.20924 102.32376 30177 ft 473 kts 294°
2026-05-06 12:19 34.24043 102.25363 30199 ft 474 kts 294°
2026-05-06 12:20 34.27171 102.18338 30188 ft 475 kts 294°
2026-05-06 12:20 34.30284 102.11304 30183 ft 475 kts 294°
2026-05-06 12:21 34.33387 102.04259 30187 ft 474 kts 294°
2026-05-06 12:21 34.36482 101.97217 30183 ft 474 kts 294°
2026-05-06 12:22 34.39556 101.90209 30195 ft 475 kts 294°
2026-05-06 12:22 34.42657 101.83126 30194 ft 476 kts 294°
2026-05-06 12:23 34.45755 101.76034 30175 ft 476 kts 294°
2026-05-06 12:23 34.48843 101.68950 30163 ft 475 kts 294°
2026-05-06 12:24 34.51918 101.61880 30168 ft 474 kts 294°
2026-05-06 12:24 34.54986 101.54812 30152 ft 473 kts 293°
2026-05-06 12:25 34.58049 101.47743 30156 ft 473 kts 293°
2026-05-06 12:25 34.61109 101.40665 30166 ft 474 kts 293°
2026-05-06 12:26 34.64169 101.33568 30157 ft 475 kts 293°
2026-05-06 12:26 34.67231 101.26458 30150 ft 475 kts 293°
2026-05-06 12:27 34.70293 101.19332 30163 ft 476 kts 293°
2026-05-06 12:27 34.73355 101.12189 30150 ft 477 kts 293°
2026-05-06 12:28 34.76408 101.05055 30169 ft 475 kts 293°
2026-05-06 12:28 34.79426 100.97986 30143 ft 473 kts 293°
2026-05-06 12:29 34.82444 100.90903 30150 ft 470 kts 293°
2026-05-06 12:29 34.85445 100.83845 30139 ft 469 kts 293°
2026-05-06 12:30 34.88436 100.76794 30126 ft 468 kts 293°
2026-05-06 12:30 34.91423 100.69734 30134 ft 469 kts 293°
2026-05-06 12:31 34.94413 100.62661 30117 ft 470 kts 293°
2026-05-06 12:31 34.97399 100.55579 30116 ft 470 kts 293°
2026-05-06 12:32 35.00387 100.48473 30118 ft 471 kts 293°
2026-05-06 12:32 35.03376 100.41353 30107 ft 472 kts 293°
2026-05-06 12:33 35.06363 100.34220 30124 ft 471 kts 294°
2026-05-06 12:33 35.09340 100.27101 30120 ft 470 kts 294°
2026-05-06 12:34 35.12298 100.20015 30111 ft 466 kts 294°
2026-05-06 12:34 35.15231 100.12971 30111 ft 464 kts 294°
2026-05-06 12:35 35.18151 100.05940 30124 ft 464 kts 294°
2026-05-06 12:35 35.21049 99.98947 30124 ft 465 kts 294°
2026-05-06 12:36 35.23983 99.91847 30148 ft 465 kts 293°
2026-05-06 12:36 35.26890 99.84812 30139 ft 466 kts 293°
2026-05-06 12:37 35.29808 99.77727 30167 ft 466 kts 293°
2026-05-06 12:37 35.32723 99.70633 30170 ft 466 kts 293°
2026-05-06 12:38 35.35625 99.63555 30152 ft 466 kts 293°
2026-05-06 12:38 35.38531 99.56453 30155 ft 466 kts 293°
2026-05-06 12:39 35.41432 99.49357 30164 ft 466 kts 293°
2026-05-06 12:39 35.44329 99.42241 30161 ft 467 kts 293°
2026-05-06 12:40 35.47225 99.35118 30146 ft 466 kts 293°
2026-05-06 12:40 35.50119 99.27986 30147 ft 467 kts 293°
2026-05-06 12:41 35.53011 99.20848 30136 ft 467 kts 293°
2026-05-06 12:41 35.55899 99.13697 30128 ft 467 kts 293°
2026-05-06 12:42 35.58778 99.06552 30132 ft 468 kts 293°
2026-05-06 12:42 35.61668 98.99366 30120 ft 469 kts 293°
2026-05-06 12:43 35.64555 98.92173 30128 ft 469 kts 293°
2026-05-06 12:43 35.67435 98.84981 30128 ft 469 kts 293°
2026-05-06 12:44 35.70298 98.77818 30132 ft 470 kts 292°
2026-05-06 12:44 35.73177 98.70594 30121 ft 470 kts 292°
2026-05-06 12:45 35.76055 98.63357 30121 ft 471 kts 292°
2026-05-06 12:46 35.80375 98.52471 30124 ft 472 kts 292°
2026-05-06 12:46 35.83253 98.45191 30107 ft 473 kts 292°
2026-05-06 12:47 35.86132 98.37899 30098 ft 473 kts 292°
2026-05-06 12:47 35.89004 98.30605 30082 ft 473 kts 292°
2026-05-06 12:48 35.91867 98.23318 30076 ft 472 kts 292°
2026-05-06 12:48 35.94725 98.16026 30060 ft 472 kts 292°
2026-05-06 12:49 35.97575 98.08740 30067 ft 471 kts 292°
2026-05-06 12:49 35.99938 98.02686 30037 ft 470 kts 292°
2026-05-06 12:50 36.02769 97.95417 30032 ft 469 kts 292°
2026-05-06 12:50 36.05591 97.88158 30015 ft 468 kts 292°
2026-05-06 12:51 36.08859 97.79727 30007 ft 468 kts 292°
2026-05-06 12:51 36.11212 97.73642 30006 ft 468 kts 292°
2026-05-06 12:52 36.14016 97.66377 30007 ft 468 kts 292°
2026-05-06 12:52 36.16852 97.59116 30004 ft 469 kts 293°
2026-05-06 12:53 36.19761 97.51951 30005 ft 470 kts 294°
2026-05-06 12:53 36.22701 97.44721 29974 ft 470 kts 294°
2026-05-06 12:54 36.25626 97.37472 29972 ft 470 kts 294°
2026-05-06 12:54 36.28542 97.30209 29974 ft 471 kts 294°
2026-05-06 12:55 36.31457 97.22930 29979 ft 471 kts 294°
2026-05-06 12:55 36.34364 97.15655 29963 ft 471 kts 294°
2026-05-06 12:56 36.37266 97.08375 29962 ft 471 kts 293°
2026-05-06 12:56 36.40160 97.01101 29962 ft 470 kts 293°
2026-05-06 12:57 36.43052 96.93816 29966 ft 470 kts 293°
2026-05-06 12:57 36.45938 96.86529 29953 ft 470 kts 293°
2026-05-06 12:58 36.48819 96.79236 29950 ft 470 kts 294°
2026-05-06 12:58 36.51697 96.71936 29957 ft 470 kts 294°
2026-05-06 12:59 36.54552 96.64675 29964 ft 471 kts 294°
2026-05-06 12:59 36.57428 96.57359 29970 ft 471 kts 293°
2026-05-06 13:00 36.60338 96.50064 29954 ft 470 kts 294°
2026-05-06 13:00 36.63248 96.42782 29955 ft 469 kts 294°
2026-05-06 13:01 36.66146 96.35501 29957 ft 469 kts 294°
2026-05-06 13:01 36.69035 96.28215 29956 ft 469 kts 294°
2026-05-06 13:02 36.71920 96.20921 29948 ft 469 kts 294°
2026-05-06 13:02 36.74802 96.13618 29948 ft 470 kts 294°
2026-05-06 13:03 36.77682 96.06304 29949 ft 470 kts 294°
2026-05-06 13:03 36.80590 95.98986 29948 ft 471 kts 294°
2026-05-06 13:04 36.83515 95.91670 29938 ft 472 kts 294°
2026-05-06 13:04 36.86442 95.84323 29941 ft 472 kts 294°
2026-05-06 13:05 36.89358 95.76975 29923 ft 472 kts 294°
2026-05-06 13:05 36.92263 95.69635 29925 ft 471 kts 293°
2026-05-06 13:06 36.95170 95.62272 29915 ft 472 kts 293°
2026-05-06 13:06 36.98072 95.54906 29916 ft 472 kts 293°
2026-05-06 13:07 37.00963 95.47580 29913 ft 473 kts 294°
2026-05-06 13:07 37.03944 95.40244 29915 ft 474 kts 294°
2026-05-06 13:08 37.06947 95.32901 29922 ft 474 kts 294°
2026-05-06 13:08 37.09937 95.25551 29920 ft 473 kts 294°
2026-05-06 13:09 37.12911 95.18200 29941 ft 472 kts 294°
2026-05-06 13:09 37.15866 95.10874 29929 ft 470 kts 293°
2026-05-06 13:10 37.18801 95.03583 29922 ft 467 kts 293°
2026-05-06 13:10 37.21715 94.96325 29927 ft 465 kts 293°
2026-05-06 13:11 37.24617 94.89078 29955 ft 465 kts 293°
2026-05-06 13:11 37.27517 94.81820 29953 ft 466 kts 293°
2026-05-06 13:12 37.30424 94.74529 29959 ft 467 kts 293°
2026-05-06 13:12 37.33337 94.67205 29961 ft 469 kts 293°
2026-05-06 13:13 37.36250 94.59866 29969 ft 470 kts 293°
2026-05-06 13:13 37.39162 94.52513 29979 ft 470 kts 294°
2026-05-06 13:14 37.42041 94.45230 29965 ft 466 kts 294°
2026-05-06 13:14 37.44912 94.37947 29965 ft 463 kts 294°
2026-05-06 13:15 37.47777 94.30661 29971 ft 460 kts 293°
2026-05-06 13:15 37.50584 94.23504 29980 ft 459 kts 293°
2026-05-06 13:16 37.53407 94.16291 29989 ft 459 kts 293°
2026-05-06 13:16 37.56233 94.09052 29996 ft 461 kts 293°
2026-05-06 13:17 37.59064 94.01786 29995 ft 462 kts 293°
2026-05-06 13:17 37.61901 93.94487 29997 ft 463 kts 293°
2026-05-06 13:18 37.64736 93.87176 29994 ft 464 kts 293°
2026-05-06 13:18 37.67569 93.79855 30027 ft 464 kts 293°
2026-05-06 13:19 37.70394 93.72538 29998 ft 463 kts 293°
2026-05-06 13:19 37.73205 93.65238 30001 ft 461 kts 293°
2026-05-06 13:20 37.76004 93.57951 30008 ft 461 kts 293°
2026-05-06 13:20 37.78795 93.50667 30006 ft 460 kts 293°
2026-05-06 13:21 37.81576 93.43393 30007 ft 460 kts 293°
2026-05-06 13:21 37.84336 93.36157 30009 ft 460 kts 293°
2026-05-06 13:22 37.87111 93.28866 30021 ft 460 kts 293°
2026-05-06 13:22 37.89883 93.21564 30019 ft 460 kts 293°
2026-05-06 13:23 37.92652 93.14251 30018 ft 461 kts 293°
2026-05-06 13:23 37.95419 93.06927 30018 ft 461 kts 293°
2026-05-06 13:24 37.98183 92.99595 30037 ft 461 kts 292°
2026-05-06 13:24 38.00943 92.92255 30029 ft 461 kts 292°
2026-05-06 13:25 38.03694 92.84920 30043 ft 461 kts 292°
2026-05-06 13:25 38.06442 92.77576 30050 ft 461 kts 292°
2026-05-06 13:26 38.09184 92.70229 30059 ft 460 kts 292°
2026-05-06 13:26 38.11924 92.62871 30060 ft 460 kts 292°
2026-05-06 13:27 38.14654 92.55524 30078 ft 460 kts 292°
2026-05-06 13:27 38.17302 92.48119 30086 ft 459 kts 289°
2026-05-06 13:28 38.19546 92.40521 30090 ft 459 kts 288°
2026-05-06 13:28 38.21767 92.32913 30093 ft 459 kts 288°
2026-05-06 13:29 38.23995 92.25307 30101 ft 459 kts 288°
2026-05-06 13:29 38.26227 92.17701 30104 ft 459 kts 288°
2026-05-06 13:30 38.28456 92.10090 30120 ft 459 kts 288°
2026-05-06 13:30 38.30665 92.02526 30119 ft 459 kts 288°
2026-05-06 13:31 38.32884 91.94906 30126 ft 459 kts 288°
2026-05-06 13:31 38.35097 91.87281 30131 ft 459 kts 288°
2026-05-06 13:32 38.37306 91.79653 30144 ft 459 kts 288°
2026-05-06 13:32 38.39506 91.72030 30145 ft 458 kts 288°
2026-05-06 13:33 38.41705 91.64391 30164 ft 458 kts 288°
2026-05-06 13:33 38.43894 91.56763 30150 ft 458 kts 288°
2026-05-06 13:34 38.46072 91.49154 30171 ft 456 kts 288°
2026-05-06 13:34 38.48242 91.41553 30168 ft 455 kts 288°
2026-05-06 13:35 38.50400 91.33970 30199 ft 454 kts 288°
2026-05-06 13:35 38.52550 91.26391 30190 ft 454 kts 288°
2026-05-06 13:36 38.54694 91.18811 30207 ft 453 kts 288°
2026-05-06 13:36 38.56833 91.11231 30232 ft 454 kts 287°
2026-05-06 13:37 38.58968 91.03639 30237 ft 454 kts 287°
2026-05-06 13:37 38.61100 90.96037 30234 ft 454 kts 287°
2026-05-06 13:38 38.63228 90.88428 30254 ft 454 kts 287°
2026-05-06 13:38 38.65352 90.80810 30255 ft 455 kts 287°
2026-05-06 13:39 38.67114 90.74481 30272 ft 455 kts 287°
2026-05-06 13:39 38.69326 90.66894 30262 ft 455 kts 289°
2026-05-06 13:40 38.72164 90.58188 30252 ft 456 kts 290°
2026-05-06 13:40 38.74206 90.51923 30250 ft 455 kts 289°
2026-05-06 13:41 38.76623 90.44425 30249 ft 455 kts 289°
2026-05-06 13:41 38.79027 90.36932 30249 ft 454 kts 289°
2026-05-06 13:42 38.81420 90.29443 30244 ft 454 kts 289°
2026-05-06 13:42 38.83804 90.21936 30245 ft 454 kts 289°
2026-05-06 13:43 38.86166 90.14472 30233 ft 454 kts 289°
2026-05-06 13:43 38.88540 90.06953 30233 ft 455 kts 289°
2026-05-06 13:44 38.90912 89.99425 30234 ft 455 kts 289°
2026-05-06 13:44 38.93278 89.91893 30233 ft 455 kts 289°
2026-05-06 13:45 38.95639 89.84359 30216 ft 454 kts 289°
2026-05-06 13:45 38.99170 89.73052 30213 ft 454 kts 289°
2026-05-06 13:46 39.01517 89.65509 30208 ft 454 kts 289°
2026-05-06 13:46 39.03859 89.57964 30176 ft 454 kts 289°
2026-05-06 13:47 39.06194 89.50422 30166 ft 454 kts 289°
2026-05-06 13:47 39.08522 89.42878 30163 ft 453 kts 289°
2026-05-06 13:48 39.10845 89.35332 30154 ft 453 kts 288°
2026-05-06 13:48 39.13161 89.27784 30129 ft 452 kts 288°
2026-05-06 13:49 39.15450 89.20309 30101 ft 450 kts 288°
2026-05-06 13:49 39.17738 89.12817 30101 ft 448 kts 288°
2026-05-06 13:50 39.20011 89.05351 30094 ft 447 kts 288°
2026-05-06 13:50 39.22274 88.97896 30071 ft 446 kts 288°
2026-05-06 13:51 39.24531 88.90441 30062 ft 446 kts 288°
2026-05-06 13:51 39.26785 88.82975 30073 ft 447 kts 288°
2026-05-06 13:52 39.29039 88.75486 30060 ft 448 kts 288°
2026-05-06 13:52 39.31298 88.67964 30050 ft 449 kts 288°
2026-05-06 13:53 39.33551 88.60438 30045 ft 450 kts 288°
2026-05-06 13:53 39.35808 88.52881 30049 ft 450 kts 288°
2026-05-06 13:54 39.38055 88.45336 30039 ft 450 kts 288°
2026-05-06 13:54 39.40297 88.37783 30033 ft 450 kts 288°
2026-05-06 13:55 39.42533 88.30233 30035 ft 449 kts 288°
2026-05-06 13:55 39.44762 88.22684 30037 ft 449 kts 288°
2026-05-06 13:56 39.46970 88.15183 30035 ft 449 kts 288°
2026-05-06 13:56 39.49188 88.07629 30033 ft 449 kts 289°
2026-05-06 13:57 39.51402 88.00065 30031 ft 449 kts 289°
2026-05-06 13:57 39.53615 87.92487 30034 ft 450 kts 289°
2026-05-06 13:58 39.55825 87.84893 30038 ft 451 kts 289°
2026-05-06 13:58 39.58038 87.77268 30039 ft 453 kts 289°
2026-05-06 13:59 39.60260 87.69588 30031 ft 456 kts 289°
2026-05-06 13:59 39.62494 87.61846 30042 ft 460 kts 289°
2026-05-06 14:00 39.64737 87.54051 30040 ft 463 kts 289°
2026-05-06 14:00 39.66987 87.46208 30043 ft 464 kts 289°
2026-05-06 14:01 39.69237 87.38343 30039 ft 465 kts 289°
2026-05-06 14:01 39.71479 87.30480 30023 ft 464 kts 290°
2026-05-06 14:02 39.73710 87.22632 30040 ft 463 kts 290°
2026-05-06 14:02 39.75918 87.14840 30042 ft 462 kts 290°
2026-05-06 14:03 39.78137 87.06987 30050 ft 464 kts 291°
2026-05-06 14:03 39.80368 86.99068 30056 ft 468 kts 290°
2026-05-06 14:04 39.82612 86.91076 30044 ft 472 kts 291°
2026-05-06 14:04 39.84871 86.83011 30060 ft 476 kts 291°
2026-05-06 14:05 39.86005 86.78951 30226 ft 478 kts 291°
2026-05-06 14:05 39.87137 86.74893 30644 ft 475 kts 291°
2026-05-06 14:05 39.88255 86.70873 31157 ft 470 kts 291°
2026-05-06 14:05 39.89361 86.66893 31656 ft 465 kts 290°
2026-05-06 14:06 39.90457 86.62945 32066 ft 463 kts 290°
2026-05-06 14:06 39.91555 86.58984 32032 ft 466 kts 290°
2026-05-06 14:06 39.93744 86.51069 32039 ft 462 kts 290°
2026-05-06 14:07 39.95908 86.43218 32058 ft 460 kts 290°
2026-05-06 14:07 39.98062 86.35378 32062 ft 460 kts 291°
2026-05-06 14:08 40.00217 86.27510 32069 ft 462 kts 291°
2026-05-06 14:08 40.02382 86.19584 32073 ft 465 kts 291°
2026-05-06 14:09 40.04540 86.11658 32057 ft 468 kts 291°
2026-05-06 14:09 40.06716 86.03642 32061 ft 469 kts 291°
2026-05-06 14:10 40.08746 85.95530 32060 ft 471 kts 288°
2026-05-06 14:10 40.10550 85.87310 32069 ft 471 kts 287°
2026-05-06 14:11 40.12335 85.79083 32066 ft 470 kts 287°
2026-05-06 14:11 40.14126 85.70874 32066 ft 469 kts 287°
2026-05-06 14:12 40.15915 85.62693 32068 ft 468 kts 287°
2026-05-06 14:12 40.17699 85.54516 32065 ft 467 kts 287°
2026-05-06 14:13 40.19476 85.46335 32069 ft 468 kts 287°
2026-05-06 14:13 40.21249 85.38140 32063 ft 468 kts 287°
2026-05-06 14:14 40.23019 85.29929 32073 ft 469 kts 287°
2026-05-06 14:14 40.24785 85.21700 32071 ft 470 kts 287°
2026-05-06 14:15 40.26549 85.13454 32071 ft 471 kts 287°
2026-05-06 14:15 40.28309 85.05195 32072 ft 471 kts 287°
2026-05-06 14:16 40.30063 84.96931 32073 ft 471 kts 287°
2026-05-06 14:16 40.31798 84.88721 32070 ft 470 kts 287°
2026-05-06 14:17 40.33537 84.80460 32069 ft 470 kts 287°
2026-05-06 14:17 40.35269 84.72205 32070 ft 469 kts 287°
2026-05-06 14:18 40.36994 84.63950 32066 ft 469 kts 287°
2026-05-06 14:18 40.38711 84.55699 32075 ft 469 kts 286°
2026-05-06 14:19 40.40422 84.47448 32079 ft 469 kts 286°
2026-05-06 14:19 40.42126 84.39193 32080 ft 469 kts 286°
2026-05-06 14:20 40.43826 84.30931 32077 ft 469 kts 286°
2026-05-06 14:20 40.45519 84.22667 32075 ft 469 kts 286°
2026-05-06 14:21 40.47205 84.14402 32079 ft 468 kts 286°
2026-05-06 14:21 40.48874 84.06188 32080 ft 468 kts 286°
2026-05-06 14:22 40.50549 83.97920 32079 ft 468 kts 286°
2026-05-06 14:22 40.52226 83.89662 32068 ft 468 kts 286°
2026-05-06 14:23 40.53955 83.81417 32077 ft 468 kts 287°
2026-05-06 14:23 40.55691 83.73173 32078 ft 468 kts 287°
2026-05-06 14:24 40.57414 83.64921 32082 ft 468 kts 286°
2026-05-06 14:24 40.59127 83.56662 32076 ft 468 kts 286°
2026-05-06 14:25 40.60833 83.48394 32072 ft 468 kts 286°
2026-05-06 14:25 40.62533 83.40126 32075 ft 468 kts 286°
2026-05-06 14:26 40.64225 83.31861 32076 ft 468 kts 286°
2026-05-06 14:26 40.65914 83.23582 32075 ft 468 kts 286°
2026-05-06 14:27 40.67597 83.15298 32061 ft 468 kts 286°
2026-05-06 14:27 40.69274 83.07013 32071 ft 468 kts 286°
2026-05-06 14:28 40.70944 82.98726 32080 ft 468 kts 286°
2026-05-06 14:28 40.72598 82.90486 32075 ft 468 kts 286°
2026-05-06 14:29 40.74258 82.82183 32082 ft 468 kts 286°
2026-05-06 14:29 40.75912 82.73876 32072 ft 469 kts 286°
2026-05-06 14:30 40.77561 82.65560 32079 ft 469 kts 286°
2026-05-06 14:30 40.78928 82.58638 32079 ft 469 kts 286°
2026-05-06 14:31 40.80568 82.50305 32071 ft 469 kts 286°
2026-05-06 14:31 40.82203 82.41962 32076 ft 469 kts 286°
2026-05-06 14:32 40.83832 82.33612 32065 ft 470 kts 286°
2026-05-06 14:32 40.85457 82.25254 32067 ft 470 kts 286°
2026-05-06 14:33 40.87076 82.16887 32083 ft 470 kts 286°
2026-05-06 14:33 40.88690 82.08511 32070 ft 470 kts 286°
2026-05-06 14:34 40.90298 82.00130 32075 ft 470 kts 286°
2026-05-06 14:34 40.91898 81.91753 32062 ft 470 kts 286°
2026-05-06 14:35 40.93495 81.83363 32078 ft 470 kts 286°
2026-05-06 14:35 40.95086 81.74959 32082 ft 470 kts 286°
2026-05-06 14:36 40.96669 81.66572 32073 ft 470 kts 286°
2026-05-06 14:36 40.98432 81.58248 32078 ft 469 kts 289°
2026-05-06 14:37 41.00350 81.50040 32076 ft 469 kts 289°
2026-05-06 14:37 41.02257 81.41772 32077 ft 470 kts 289°
2026-05-06 14:38 41.04127 81.33483 32077 ft 470 kts 288°
2026-05-06 14:38 41.05979 81.25182 32068 ft 470 kts 288°
2026-05-06 14:39 41.07824 81.16878 32072 ft 470 kts 288°
2026-05-06 14:39 41.09665 81.08571 32075 ft 470 kts 288°
2026-05-06 14:40 41.11501 81.00256 32075 ft 470 kts 288°
2026-05-06 14:40 41.13331 80.91936 32074 ft 470 kts 288°
2026-05-06 14:41 41.15155 80.83612 32073 ft 470 kts 288°
2026-05-06 14:41 41.16961 80.75339 32080 ft 470 kts 288°
2026-05-06 14:42 41.18773 80.67003 32085 ft 470 kts 288°
2026-05-06 14:42 41.20578 80.58669 32078 ft 469 kts 288°
2026-05-06 14:43 41.22375 80.50339 32071 ft 469 kts 287°
2026-05-06 14:43 41.24162 80.42023 32076 ft 468 kts 287°
2026-05-06 14:44 41.25945 80.33701 32079 ft 468 kts 287°
2026-05-06 14:45 41.28593 80.21201 32091 ft 468 kts 287°
2026-05-06 14:45 41.30345 80.12858 32090 ft 468 kts 287°
2026-05-06 14:46 41.32092 80.04510 32094 ft 469 kts 287°
2026-05-06 14:46 41.33836 79.96153 32106 ft 469 kts 287°
2026-05-06 14:47 41.35574 79.87790 32111 ft 469 kts 286°
2026-05-06 14:47 41.37306 79.79422 32103 ft 469 kts 286°
2026-05-06 14:48 41.39029 79.71059 32111 ft 468 kts 286°
2026-05-06 14:48 41.40744 79.62706 32122 ft 467 kts 286°
2026-05-06 14:49 41.42450 79.54366 32130 ft 466 kts 286°
2026-05-06 14:49 41.44145 79.46039 32133 ft 465 kts 286°
2026-05-06 14:50 41.45822 79.37775 32178 ft 465 kts 285°
2026-05-06 14:50 41.47500 79.29463 32176 ft 464 kts 285°
2026-05-06 14:51 41.49172 79.21155 32208 ft 464 kts 285°
2026-05-06 14:51 41.50836 79.12849 32249 ft 464 kts 285°
2026-05-06 14:52 41.52498 79.04516 32272 ft 464 kts 285°
2026-05-06 14:52 41.54156 78.96174 32307 ft 466 kts 284°
2026-05-06 14:53 41.55791 78.87804 32302 ft 466 kts 282°